Regional Weather Roundup
Issued by NWS

Home | Current Version | Previous Version | Graphics & Text | Print | Product List | Glossary On
Versions: 1 2 3 4 5 6 7 8 9 10 11 12 13 14 15 16 17 18 19 20 21 22 23 24 25 26 27 28 29 30 31 32 33 34 35 36 37 38 39 40 41 42 43 44 45 46 47 48 49 50
000
ASUS44 KMEG 231200
RWRTN
TENNESSEE HOURLY STATE WEATHER ROUNDUP
NATIONAL WEATHER SERVICE MEMPHIS TN
700 AM CDT SAT MAY 23 2015

TNZ002-004-019-021-049-052-054-088>092-231300-
WEST TENNESSEE

CITY           SKY/WX    TMP DP  RH WIND       PRES   REMARKS
MEMPHIS INTL   CLOUDY    64  51  62 E7        30.28R
NWS MEMPHIS      N/A     61 N/A N/A MISG        N/A
JACKSON        PTSUNNY   58  51  78 CALM      30.31R
DYERSBURG      CLOUDY    61  43  51 E3        30.32R
PARIS          SUNNY     57  54  88 NE3       30.33R
LEXINGTON      SUNNY     54  52  94 CALM      30.31R
$$

TNZ008-025-027-028-033-062-065-066-231300-
NORTH MIDDLE TENNESSEE

CITY           SKY/WX    TMP DP  RH WIND       PRES   REMARKS
NASHVILLE      PTSUNNY   54  51  90 CALM      30.35R
CLARKSVILLE    CLOUDY    58  53  84 CALM      30.34R
COOKEVILLE     SUNNY     50  48  93 CALM      30.35R
CROSSVILLE     PTSUNNY   51  48  89 CALM      30.39R
$$

TNZ061-075-076-078-094-096-097-231300-
SOUTH MIDDLE TENNESSEE

CITY           SKY/WX    TMP DP  RH WIND       PRES   REMARKS
FAYETTEVILLE   SUNNY    N/A N/A N/A MISG      30.34R
TULLAHOMA      SUNNY     54  46  76 CALM      30.35R
WINCHESTER     SUNNY     54  50  87 NE5       30.35R
COLUMBIA       SUNNY     52  48  87 CALM      30.32S
SHELBYVILLE    SUNNY     54  52  94 CALM      30.35R
$$

TNZ017-018-042-046-047-231300-
NORTHEAST TENNESSEE

CITY           SKY/WX    TMP DP  RH WIND       PRES   REMARKS
TRI CITIES     PTSUNNY   51  47  86 CALM      30.41R
ELIZABETHTON   SUNNY     50  45  81 CALM      30.42R
$$

TNZ012-013-036-069-073-074-231300-
CENTRAL EAST TENNESSEE

CITY           SKY/WX    TMP DP  RH WIND       PRES   REMARKS
KNOXVILLE      MOSUNNY   53  47  79 CALM      30.38R
OAK RIDGE      MOSUNNY   54  50  86 CALM      30.40R
GATLINBURG     SUNNY     48  45  87 CALM      30.39R
$$

TNZ083-085-099-231300-
SOUTHEAST TENNESSEE

CITY           SKY/WX    TMP DP  RH WIND       PRES   REMARKS
CHATTANOOGA    MOSUNNY   54  49  83 CALM      30.38R
$$

SKY/WX REPORTED AS FAIR MEANS FEW OR NO CLOUDS BELOW
12 THOUSAND FEET.



USA.gov is the U.S. government's official web portal to all federal, state and local government web resources and services.